TimeCDT,TemperatureF,Dew PointF,Humidity,Sea Level PressureIn,VisibilityMPH,Wind Direction,Wind SpeedMPH,Gust SpeedMPH,PrecipitationIn,Events,Conditions,WindDirDegrees,DateUTC
12:53 AM,73.9,48.9,41,29.83,10.0,SSE,19.6,36.8,N/A,,Clear,150,2012-09-02 05:53:00
1:53 AM,73.0,50.0,44,29.83,10.0,SSE,19.6,28.8,N/A,,Clear,160,2012-09-02 06:53:00
2:53 AM,73.0,51.1,46,29.81,10.0,SSE,25.3,32.2,N/A,,Clear,160,2012-09-02 07:53:00
3:53 AM,72.0,51.1,48,29.81,10.0,SSE,21.9,31.1,N/A,,Clear,160,2012-09-02 08:53:00
4:53 AM,72.0,52.0,49,29.78,10.0,SSE,25.3,36.8,N/A,,Clear,160,2012-09-02 09:53:00
5:53 AM,72.0,54.0,53,29.75,10.0,SSE,19.6,34.5,N/A,,Clear,160,2012-09-02 10:53:00
6:53 AM,71.1,55.9,59,29.78,10.0,SSE,17.3,34.5,0.00,Rain,Light Rain,160,2012-09-02 11:53:00
7:53 AM,71.1,57.0,61,29.77,10.0,SSE,17.3,26.5,0.00,,Clear,160,2012-09-02 12:53:00
8:53 AM,72.0,57.0,59,29.76,10.0,SSE,19.6,26.5,0.00,,Partly Cloudy,160,2012-09-02 13:53:00
9:53 AM,72.0,57.9,61,29.75,10.0,SSE,16.1,28.8,N/A,,Scattered Clouds,160,2012-09-02 14:53:00
10:53 AM,73.9,59.0,59,29.75,10.0,SSE,20.7,28.8,0.00,,Partly Cloudy,160,2012-09-02 15:53:00
11:53 AM,73.9,60.1,62,29.75,10.0,SSE,16.1,24.2,0.00,Rain,Light Rain,150,2012-09-02 16:53:00
12:53 PM,77.0,61.0,58,29.74,10.0,SSE,6.9,-,0.00,,Clear,160,2012-09-02 17:53:00
1:53 PM,80.1,63.0,56,29.74,10.0,South,13.8,-,N/A,,Clear,170,2012-09-02 18:53:00
2:53 PM,84.9,64.0,49,29.73,10.0,SSW,15.0,19.6,N/A,,Clear,210,2012-09-02 19:53:00
3:53 PM,87.1,64.0,46,29.73,10.0,WSW,6.9,-,N/A,,Clear,240,2012-09-02 20:53:00
4:53 PM,88.0,62.1,42,29.74,10.0,NW,11.5,-,N/A,,Clear,310,2012-09-02 21:53:00
5:53 PM,87.1,60.1,40,29.76,10.0,NNW,20.7,28.8,N/A,,Scattered Clouds,330,2012-09-02 22:53:00
6:53 PM,84.0,57.9,41,29.78,10.0,North,8.1,-,N/A,,Clear,10,2012-09-02 23:53:00
7:53 PM,79.0,57.9,48,29.79,10.0,NNW,3.5,-,N/A,,Clear,330,2012-09-03 00:53:00
8:53 PM,73.0,55.9,55,29.82,10.0,WNW,5.8,-,N/A,,Clear,300,2012-09-03 01:53:00
9:53 PM,66.9,55.0,66,29.85,10.0,WNW,3.5,-,N/A,,Clear,300,2012-09-03 02:53:00
10:53 PM,63.0,54.0,72,29.86,10.0,Calm,Calm,-,N/A,,Clear,0,2012-09-03 03:53:00
11:53 PM,59.0,52.0,78,29.86,10.0,Calm,Calm,-,N/A,,Clear,0,2012-09-03 04:53:00